Location: Huesca
(42.1318°N, 0.4078°W)
Time: 16:04:10
(UTC+02:00)

ACS3 Solar Sail - Pass Details

Date: 20 June 2024
Orbit: 992 x 1023 km, 97.4° (Epoch: 11 July)

Event Time Altitude Azimuth Distance (km) Brightness Sun altitude
Exits shadow 23:51:24 21° 182° (S) 2,067 6.0 -17.7°
Maximum altitude 23:55:41 66° 260° (W) 1,082 5.1 -18.1°
Drops below altitude 10° 00:01:53 10° 343° (NNW) 2,767 8.4 -18.7°
Sets 00:04:24 0° 346° (NNW) 3,719 9.3 -18.9°
